Weather History for Bennettsville, SC

Change the Weather History Date:

Monday, April 8, 2013

  Actual Average (KFLO) Record (KFLO)
Temperature  
Mean Temperature 64 °F 61 °F  
Max Temperature 78 °F 74 °F 90 °F (1999)
Min Temperature 50 °F 49 °F 26 °F (2007)
Degree Days  
Heating Degree Days 1 5  
Month to date heating degree days 47  
Since 1 July heating degree days 2423  
Cooling Degree Days 0 2  
Month to date cooling degree days 13  
Year to date cooling degree days 37  
Growing Degree Days 14 (Base 50)    
Moisture  
Dew Point 55 °F    
Average Humidity 72    
Maximum Humidity 100    
Minimum Humidity 36    
Precipitation  
Precipitation 0.00 in 0.09 in 1.80 in (1983)
Month to date precipitation 0.72  
Year to date precipitation 10.20  
Sea Level Pressure  
Sea Level Pressure 30.14 in    
Wind  
Wind Speed 4 mph (South)    
Max Wind Speed 13 mph    
Max Gust Speed 18 mph    
Visibility 8 miles    
Events Fog    
T = Trace of Precipitation, MM = Missing Value Source: NWS Daily Summary

Daily Weather History Graph

Daily Weather History Graph

Search for Another Location

Airport:

Trip Planner

Search our weather history database for the weather conditions in past years. The results will help you decide how hot, cold, wet, or windy it might be!

Date:

Astronomy

Apr. 08, 2013 Rise Set
Actual Time 6:56 AM EDT 7:45 PM EDT
Civil Twilight 6:30 AM EDT 8:11 PM EDT
Nautical Twilight 6:00 AM EDT 8:41 PM EDT
Astronomical Twilight 5:29 AM EDT 9:12 PM EDT
Moon 5:41 AM EDT (4/8) 6:20 PM EDT (4/8)
Length of Visible Light 13h 40m
Length of Day
12h 49m
Waning Crescent, 3% of the Moon is Illuminated
Apr 8
Waning Crescent
Apr 10
New
Apr 18
First Quarter
Apr 25
Full
May 2
Last Quarter

Hourly Weather History & Observations

Time (EDT) Temp. Dew Point Humidity Pressure Visibility Wind Dir Wind Speed Gust Speed Precip Events Conditions
12:15 AM 62.6 °F 53.6 °F 72% 30.15 in 10.0 mi SSE 5.8 mph - N/A   Clear
12:35 AM 60.8 °F 53.6 °F 77% 30.15 in 10.0 mi SSE 3.5 mph - N/A   Clear
12:55 AM 60.8 °F 55.4 °F 82% 30.14 in 10.0 mi South 3.5 mph - N/A   Clear
1:15 AM 60.8 °F 55.4 °F 82% 30.14 in 10.0 mi South 3.5 mph - N/A   Clear
1:35 AM 60.8 °F 55.4 °F 82% 30.14 in 10.0 mi South 3.5 mph - N/A   Clear
1:55 AM 60.8 °F 55.4 °F 82% 30.14 in 10.0 mi Calm Calm - N/A   Clear
2:15 AM 59.0 °F 55.4 °F 88% 30.13 in 10.0 mi SE 3.5 mph - N/A   Clear
2:35 AM 59.0 °F 57.2 °F 94% 30.13 in 10.0 mi Calm Calm - N/A   Clear
2:55 AM 59.0 °F 57.2 °F 94% 30.13 in 10.0 mi Calm Calm - N/A   Clear
3:15 AM 55.4 °F 55.4 °F 100% 30.13 in 4.0 mi Calm Calm - N/A   Clear
3:35 AM 51.8 °F 51.8 °F 100% 30.13 in 4.0 mi Calm Calm - N/A   Clear
3:55 AM 53.6 °F 53.6 °F 100% 30.13 in 0.2 mi Calm Calm - N/A Fog Fog
4:15 AM 53.6 °F 53.6 °F 100% 30.13 in 0.8 mi Calm Calm - N/A   Mostly Cloudy
4:35 AM 53.6 °F 53.6 °F 100% 30.13 in 4.0 mi Calm Calm - N/A   Scattered Clouds
4:55 AM 53.6 °F 53.6 °F 100% 30.13 in 0.5 mi Calm Calm - N/A Fog Fog
5:15 AM 53.6 °F 53.6 °F 100% 30.13 in 0.5 mi Calm Calm - N/A Fog Fog
5:35 AM 50.0 °F 50.0 °F 100% 30.13 in 0.2 mi Calm Calm - N/A Fog Fog
5:55 AM 51.8 °F 51.8 °F 100% 30.14 in 3.0 mi Calm Calm - N/A   Mist
6:15 AM 51.8 °F 51.8 °F 100% 30.14 in 0.8 mi Calm Calm - N/A   Overcast
6:55 AM 51.8 °F 51.8 °F 100% 30.16 in 0.2 mi Calm Calm - N/A Fog Fog
7:15 AM 53.6 °F 53.6 °F 100% 30.17 in 0.2 mi Calm Calm - N/A Fog Fog
7:35 AM 55.4 °F 55.4 °F 100% 30.18 in 0.2 mi Calm Calm - N/A Fog Fog
7:55 AM 55.4 °F 55.4 °F 100% 30.19 in 0.2 mi Calm Calm - N/A Fog Fog
8:15 AM 55.4 °F 55.4 °F 100% 30.19 in 0.2 mi Calm Calm - N/A Fog Fog
8:35 AM 57.2 °F 57.2 °F 100% 30.20 in 0.2 mi Calm Calm - N/A Fog Fog
8:55 AM 59.0 °F 59.0 °F 100% 30.20 in 0.5 mi Calm Calm - N/A Fog Fog
9:15 AM 59.0 °F 59.0 °F 100% 30.20 in 5.0 mi Calm Calm - N/A   Overcast
9:35 AM 59.0 °F 59.0 °F 100% 30.20 in 7.0 mi Calm Calm - N/A   Overcast
9:55 AM 60.8 °F 60.8 °F 100% 30.20 in 10.0 mi Calm Calm - N/A   Overcast
10:15 AM 60.8 °F 60.8 °F 100% 30.20 in 7.0 mi SSW 3.5 mph - N/A   Overcast
10:35 AM 62.6 °F 62.6 °F 100% 30.21 in 7.0 mi SW 4.6 mph - N/A   Overcast
10:55 AM 62.6 °F 62.6 °F 100% 30.21 in 10.0 mi SSW 3.5 mph - N/A   Overcast
11:15 AM 64.4 °F 62.6 °F 94% 30.20 in 10.0 mi SW 5.8 mph - N/A   Overcast
11:35 AM 69.8 °F 60.8 °F 73% 30.20 in 10.0 mi SW 6.9 mph - N/A   Mostly Cloudy
11:55 AM 71.6 °F 59.0 °F 64% 30.19 in 10.0 mi South 8.1 mph - N/A   Scattered Clouds
12:15 PM 73.4 °F 59.0 °F 61% 30.19 in 10.0 mi South 9.2 mph - N/A   Clear
12:35 PM 73.4 °F 55.4 °F 53% 30.18 in 10.0 mi WSW 6.9 mph - N/A   Scattered Clouds
12:55 PM 75.2 °F 57.2 °F 53% 30.18 in 10.0 mi SW 10.4 mph - N/A   Scattered Clouds
1:15 PM 75.2 °F 57.2 °F 53% 30.16 in 10.0 mi South 6.9 mph - N/A   Clear
1:35 PM 77.0 °F 55.4 °F 47% 30.15 in 10.0 mi SSW 6.9 mph - N/A   Clear
1:55 PM 77.0 °F 57.2 °F 50% 30.14 in 10.0 mi South 8.1 mph - N/A   Clear
2:15 PM 77.0 °F 53.6 °F 44% 30.13 in 10.0 mi South 9.2 mph - N/A   Clear
2:35 PM 77.0 °F 53.6 °F 44% 30.13 in 10.0 mi South 9.2 mph - N/A   Scattered Clouds
2:55 PM 78.8 °F 51.8 °F 39% 30.12 in 10.0 mi SSW 10.4 mph 17.3 mph N/A   Scattered Clouds
3:15 PM 78.8 °F 53.6 °F 42% 30.11 in 10.0 mi SSW 12.7 mph 17.3 mph N/A   Scattered Clouds
3:35 PM 78.8 °F 53.6 °F 42% 30.10 in 10.0 mi SSW 9.2 mph 16.1 mph N/A   Clear
3:55 PM 78.8 °F 51.8 °F 39% 30.09 in 10.0 mi SSW 10.4 mph - N/A   Scattered Clouds
4:15 PM 78.8 °F 53.6 °F 42% 30.08 in 10.0 mi SSW 9.2 mph 17.3 mph N/A   Clear
4:35 PM 78.8 °F 51.8 °F 39% 30.08 in 10.0 mi South 11.5 mph - N/A   Scattered Clouds
4:55 PM 78.8 °F 51.8 °F 39% 30.08 in 10.0 mi South 11.5 mph 18.4 mph N/A   Mostly Cloudy
5:15 PM 78.8 °F 51.8 °F 39% 30.08 in 10.0 mi SSW 11.5 mph - N/A   Scattered Clouds
5:35 PM 78.8 °F 51.8 °F 39% 30.08 in 10.0 mi South 10.4 mph - N/A   Clear
5:55 PM 78.8 °F 51.8 °F 39% 30.08 in 10.0 mi SW 10.4 mph - N/A   Clear
6:15 PM 78.8 °F 51.8 °F 39% 30.08 in 10.0 mi SSW 8.1 mph - N/A   Clear
6:35 PM 77.0 °F 51.8 °F 41% 30.08 in 10.0 mi South 6.9 mph - N/A   Clear
6:55 PM 78.8 °F 50.0 °F 36% 30.08 in 10.0 mi South 6.9 mph - N/A   Clear
7:15 PM 77.0 °F 50.0 °F 39% 30.09 in 10.0 mi South 4.6 mph - N/A   Clear
7:35 PM 75.2 °F 50.0 °F 41% 30.08 in 10.0 mi Calm Calm - N/A   Clear
7:55 PM 75.2 °F 50.0 °F 41% 30.09 in 10.0 mi South 3.5 mph - N/A   Clear
8:15 PM 73.4 °F 51.8 °F 47% 30.09 in 10.0 mi Calm Calm - N/A   Clear
8:35 PM 68.0 °F 53.6 °F 60% 30.10 in 10.0 mi Calm Calm - N/A   Clear
8:55 PM 68.0 °F 53.6 °F 60% 30.11 in 10.0 mi Calm Calm - N/A   Clear
9:15 PM 64.4 °F 53.6 °F 68% 30.11 in 10.0 mi Calm Calm - N/A   Clear
9:35 PM 68.0 °F 55.4 °F 64% 30.12 in 10.0 mi SE 4.6 mph - N/A   Clear
9:55 PM 68.0 °F 55.4 °F 64% 30.13 in 10.0 mi SSE 6.9 mph - N/A   Clear
10:15 PM 68.0 °F 55.4 °F 64% 30.13 in 10.0 mi SSE 4.6 mph - N/A   Clear
10:35 PM 68.0 °F 55.4 °F 64% 30.13 in 10.0 mi South 5.8 mph - N/A   Clear
10:55 PM 68.0 °F 57.2 °F 68% 30.14 in 10.0 mi South 8.1 mph - N/A   Clear
11:15 PM 68.0 °F 57.2 °F 68% 30.14 in 10.0 mi SSE 4.6 mph - N/A   Clear
11:35 PM 66.2 °F 57.2 °F 73% 30.14 in 10.0 mi South 3.5 mph - N/A   Clear
11:55 PM 64.4 °F 57.2 °F 77% 30.14 in 10.0 mi South 4.6 mph - N/A   Clear